| time (UTC) | temp F | wind direction | speed MPH | gust MPH | rain 1hr in | rain 24hr in | rain mn in | humidity % | barometer mb |
| 20260506111540 | 56 | 45 | 7.0 | 15.0 | 0.00 | 0.00 | 0.00 | 61 | 1005.5 |
| 20260506110454 | 56 | 45 | 6.0 | 16.0 | 0.00 | 0.00 | 0.00 | 63 | 1005.5 |
| 20260506105449 | 56 | 23 | 4.0 | 12.0 | 0.00 | 0.00 | 0.00 | 66 | 1005.5 |
| 20260506104414 | 55 | 45 | 5.0 | 14.0 | 0.00 | 0.00 | 0.00 | 66 | 1005.6 |
| 20260506103341 | 54 | 45 | 3.0 | 10.0 | 0.00 | 0.00 | 0.00 | 70 | 1005.6 |
| 20260506101243 | 54 | 45 | 3.0 | 8.0 | 0.00 | 0.00 | 0.00 | 72 | 1005.5 |
| 20260506100239 | 53 | 45 | 3.0 | 11.0 | 0.00 | 0.00 | 0.00 | 70 | 1005.6 |
| 20260506095104 | 53 | 45 | 2.0 | 7.0 | 0.00 | 0.00 | 0.00 | 70 | 1005.6 |
| 20260506094039 | 53 | 45 | 4.0 | 11.0 | 0.00 | 0.00 | 0.00 | 69 | 1005.6 |
| 20260506093013 | 53 | 23 | 4.0 | 9.0 | 0.00 | 0.00 | 0.00 | 70 | 1005.6 |
| 20260506091946 | 53 | 45 | 4.0 | 12.0 | 0.00 | 0.00 | 0.00 | 70 | 1005.6 |
| 20260506090919 | 52 | 45 | 4.0 | 11.0 | 0.00 | 0.00 | 0.00 | 71 | 1005.6 |
| 20260506085845 | 52 | 45 | 3.0 | 10.0 | 0.00 | 0.00 | 0.00 | 73 | 1005.6 |
| 20260506084820 | 52 | 45 | 4.0 | 10.0 | 0.00 | 0.00 | 0.00 | 74 | 1005.6 |
| 20260506083815 | 51 | 45 | 2.0 | 10.0 | 0.00 | 0.00 | 0.00 | 73 | 1005.6 |
| 20260506081716 | 51 | 45 | 2.0 | 10.0 | 0.00 | 0.00 | 0.00 | 73 | 1005.6 |
| 20260506080701 | 50 | 23 | 2.0 | 7.0 | 0.00 | 0.00 | 0.00 | 74 | 1005.4 |
| 20260506072603 | 50 | 45 | 2.0 | 6.0 | 0.00 | 0.00 | 0.00 | 75 | 1005.3 |
| 20260506071537 | 50 | 45 | 2.0 | 6.0 | 0.00 | 0.00 | 0.00 | 75 | 1005.2 |
| 20260506070525 | 50 | 45 | 3.0 | 9.0 | 0.00 | 0.00 | 0.00 | 75 | 1005.2 |
| 20260506062331 | 49 | 0 | 4.0 | 10.0 | 0.00 | 0.01 | 0.00 | 75 | 1005.1 |
| 20260506061331 | 49 | 45 | 4.0 | 10.0 | 0.00 | 0.01 | 0.00 | 77 | 1005.1 |
| 20260506060301 | 49 | 45 | 4.0 | 13.0 | 0.00 | 0.01 | 0.00 | 77 | 1005.1 |
| 20260506051042 | 48 | 45 | 3.0 | 11.0 | 0.00 | 0.05 | 0.00 | 77 | 1005.2 |
| 20260506045011 | 48 | 45 | 2.0 | 7.0 | 0.00 | 0.06 | 0.00 | 77 | 1005.4 |
| 20260506043937 | 48 | 45 | 3.0 | 8.0 | 0.00 | 0.07 | 0.00 | 77 | 1005.4 |
| 20260506042920 | 48 | 45 | 2.0 | 8.0 | 0.00 | 0.08 | 0.00 | 77 | 1005.4 |
| 20260506041914 | 48 | 45 | 3.0 | 7.0 | 0.00 | 0.09 | 0.00 | 78 | 1005.3 |
| 20260506040839 | 48 | 45 | 2.0 | 10.0 | 0.00 | 0.10 | 0.00 | 78 | 1005.3 |
| 20260506035809 | 48 | 45 | 2.0 | 9.0 | 0.00 | 0.11 | 0.00 | 79 | 1005.3 |
| 20260506034804 | 48 | 45 | 3.0 | 9.0 | 0.00 | 0.13 | 0.00 | 79 | 1005.3 |
| 20260506033740 | 47 | 45 | 2.0 | 7.0 | 0.00 | 0.13 | 0.00 | 79 | 1005.4 |
| 20260506032708 | 47 | 45 | 3.0 | 7.0 | 0.00 | 0.15 | 0.00 | 79 | 1005.4 |
| 20260506031651 | 47 | 45 | 3.0 | 7.0 | 0.00 | 0.16 | 0.00 | 80 | 1005.6 |
| 20260506030623 | 47 | 45 | 2.0 | 7.0 | 0.00 | 0.18 | 0.00 | 81 | 1005.7 |
| 20260506025603 | 47 | 45 | 2.0 | 6.0 | 0.00 | 0.19 | 0.00 | 81 | 1005.8 |
| 20260506024532 | 47 | 45 | 2.0 | 6.0 | 0.00 | 0.19 | 0.00 | 83 | 1005.9 |
| 20260506023507 | 47 | 0 | 2.0 | 7.0 | 0.00 | 0.19 | 0.00 | 83 | 1006.0 |
| 20260506022450 | 47 | 45 | 2.0 | 8.0 | 0.00 | 0.19 | 0.00 | 84 | 1006.0 |
| 20260506021425 | 48 | 23 | 2.0 | 8.0 | 0.00 | 0.19 | 0.00 | 84 | 1006.1 |
| 20260506020428 | 48 | 23 | 2.0 | 5.0 | 0.00 | 0.19 | 0.00 | 84 | 1006.2 |
| 20260506015405 | 48 | 23 | 1.0 | 3.0 | 0.00 | 0.19 | 0.00 | 84 | 1006.3 |
| 20260506013312 | 48 | 23 | 1.0 | 4.0 | 0.00 | 0.19 | 0.00 | 84 | 1006.3 |
| 20260506012240 | 48 | 23 | 1.0 | 5.0 | 0.00 | 0.19 | 0.00 | 84 | 1006.3 |
| 20260506011238 | 48 | 23 | 1.0 | 4.0 | 0.00 | 0.19 | 0.00 | 84 | 1006.5 |
| 20260506010213 | 48 | 45 | 1.0 | 3.0 | 0.00 | 0.19 | 0.00 | 84 | 1006.5 |
| 20260506005212 | 48 | 45 | 1.0 | 4.0 | 0.00 | 0.19 | 0.00 | 83 | 1006.6 |
| 20260506004156 | 48 | 45 | 1.0 | 4.0 | 0.00 | 0.19 | 0.00 | 83 | 1006.7 |
| 20260506003153 | 48 | 45 | 0.0 | 3.0 | 0.00 | 0.19 | 0.00 | 84 | 1006.7 |
| 20260506002154 | 48 | 45 | 2.0 | 4.0 | 0.00 | 0.19 | 0.00 | 84 | 1006.7 |
| 20260506001118 | 48 | 45 | 1.0 | 5.0 | 0.00 | 0.19 | 0.00 | 85 | 1006.7 |
| 20260505234004 | 48 | 0 | 2.0 | 7.0 | 0.00 | 0.19 | 0.00 | 90 | 1006.9 |
| 20260505232946 | 48 | 45 | 2.0 | 6.0 | 0.00 | 0.19 | 0.00 | 91 | 1006.9 |
| 20260505231928 | 48 | 45 | 2.0 | 7.0 | 0.00 | 0.19 | 0.00 | 91 | 1006.8 |
| 20260505230913 | 48 | 45 | 1.0 | 5.0 | 0.00 | 0.19 | 0.00 | 90 | 1006.9 |
| 20260505225842 | 48 | 23 | 1.0 | 4.0 | 0.00 | 0.19 | 0.00 | 90 | 1006.9 |
| 20260505224838 | 48 | 45 | 1.0 | 4.0 | 0.00 | 0.19 | 0.00 | 89 | 1007.2 |
| 20260505223814 | 48 | 45 | 0.0 | 3.0 | 0.00 | 0.19 | 0.00 | 88 | 1007.2 |
| 20260505222757 | 48 | 45 | 0.0 | 2.0 | 0.00 | 0.19 | 0.00 | 88 | 1007.2 |
| 20260505220703 | 48 | 45 | 0.0 | 4.0 | 0.00 | 0.19 | 0.00 | 87 | 1007.3 |
| 20260505214610 | 49 | 45 | 0.0 | 2.0 | 0.00 | 0.19 | 0.19 | 86 | 1007.4 |
| 20260505213536 | 49 | 45 | 0.0 | 3.0 | 0.00 | 0.19 | 0.19 | 85 | 1007.5 |
| 20260505212510 | 49 | 45 | 0.0 | 3.0 | 0.00 | 0.19 | 0.19 | 85 | 1007.5 |
| 20260505211447 | 49 | 45 | 0.0 | 2.0 | 0.00 | 0.19 | 0.19 | 84 | 1007.4 |
| 20260505210456 | 49 | 45 | 0.0 | 2.0 | 0.00 | 0.19 | 0.19 | 84 | 1007.4 |
| 20260505205411 | 50 | 45 | 0.0 | 2.0 | 0.00 | 0.19 | 0.19 | 84 | 1007.4 |
| 20260505204344 | 50 | 45 | 1.0 | 4.0 | 0.00 | 0.19 | 0.19 | 83 | 1007.4 |
| 20260505203321 | 50 | 45 | 1.0 | 3.0 | 0.00 | 0.19 | 0.19 | 82 | 1007.4 |
| 20260505202255 | 50 | 45 | 1.0 | 5.0 | 0.00 | 0.19 | 0.19 | 82 | 1007.4 |
| 20260505201231 | 50 | 45 | 2.0 | 5.0 | 0.00 | 0.19 | 0.19 | 81 | 1007.1 |
| 20260505200206 | 51 | 23 | 2.0 | 6.0 | 0.00 | 0.19 | 0.19 | 81 | 1007.1 |
| 20260505195205 | 51 | 45 | 2.0 | 7.0 | 0.00 | 0.19 | 0.19 | 80 | 1007.1 |
| 20260505194149 | 51 | 45 | 1.0 | 5.0 | 0.00 | 0.19 | 0.19 | 80 | 1007.1 |
| 20260505193124 | 51 | 45 | 1.0 | 4.0 | 0.00 | 0.19 | 0.19 | 80 | 1007.1 |
| 20260505192058 | 52 | 45 | 1.0 | 4.0 | 0.00 | 0.19 | 0.19 | 79 | 1007.0 |
| 20260505191040 | 52 | 45 | 2.0 | 5.0 | 0.00 | 0.19 | 0.19 | 79 | 1007.0 |
| 20260505190011 | 53 | 45 | 1.0 | 4.0 | 0.00 | 0.19 | 0.19 | 79 | 1007.0 |
| 20260505184936 | 53 | 45 | 1.0 | 5.0 | 0.00 | 0.19 | 0.19 | 79 | 1007.0 |
| 20260505183902 | 54 | 45 | 2.0 | 5.0 | 0.00 | 0.19 | 0.19 | 79 | 1007.1 |
| 20260505182844 | 54 | 45 | 2.0 | 7.0 | 0.00 | 0.19 | 0.19 | 78 | 1007.1 |
| 20260505181818 | 54 | 23 | 2.0 | 6.0 | 0.00 | 0.19 | 0.19 | 78 | 1007.0 |
| 20260505180818 | 55 | 45 | 1.0 | 5.0 | 0.00 | 0.19 | 0.19 | 78 | 1007.1 |
| 20260505175816 | 55 | 45 | 2.0 | 5.0 | 0.00 | 0.19 | 0.19 | 77 | 1007.1 |
| 20260505172654 | 55 | 0 | 3.0 | 9.0 | 0.00 | 0.19 | 0.19 | 77 | 1007.0 |
| 20260505171647 | 55 | 45 | 3.0 | 9.0 | 0.00 | 0.19 | 0.19 | 76 | 1007.1 |
| 20260505170625 | 55 | 45 | 2.0 | 8.0 | 0.00 | 0.19 | 0.19 | 78 | 1007.0 |
| 20260505165543 | 55 | 45 | 2.0 | 7.0 | 0.00 | 0.19 | 0.19 | 79 | 1007.0 |
| 20260505164521 | 55 | 45 | 2.0 | 6.0 | 0.00 | 0.19 | 0.19 | 79 | 1007.2 |
| 20260505163502 | 55 | 23 | 2.0 | 7.0 | 0.00 | 0.19 | 0.19 | 79 | 1007.4 |
| 20260505161406 | 56 | 45 | 3.0 | 10.0 | 0.00 | 0.19 | 0.19 | 79 | 1007.5 |
| 20260505153306 | 56 | 23 | 2.0 | 7.0 | 0.00 | 0.19 | 0.19 | 80 | 1007.6 |
| 20260505151213 | 56 | 45 | 2.0 | 5.0 | 0.00 | 0.19 | 0.19 | 80 | 1007.6 |
| 20260505150214 | 56 | 0 | 2.0 | 6.0 | 0.00 | 0.19 | 0.19 | 80 | 1007.6 |
| 20260505124743 | 55 | 45 | 3.0 | 10.0 | 0.00 | 0.19 | 0.19 | 90 | 1008.0 |
| 20260505122717 | 54 | 45 | 1.0 | 5.0 | 0.00 | 0.19 | 0.19 | 92 | 1008.2 |
| 20260505121710 | 53 | 90 | 2.0 | 7.0 | 0.00 | 0.19 | 0.19 | 92 | 1008.2 |
| 20260505120701 | 53 | 23 | 3.0 | 9.0 | 0.00 | 0.19 | 0.19 | 93 | 1008.2 |
| 20260505115700 | 53 | 23 | 2.0 | 9.0 | 0.00 | 0.19 | 0.19 | 94 | 1008.3 |
| 20260505114649 | 53 | 0 | 3.0 | 8.0 | 0.00 | 0.19 | 0.19 | 94 | 1008.4 |
| 20260505113628 | 53 | 0 | 2.0 | 7.0 | 0.00 | 0.19 | 0.19 | 95 | 1008.4 |